Location: Altenburg
(48.6333°N, 15.5833°E)
Time: 13:06:43
(UTC+00:00)

Daily predictions for brighter satellites

Satellite Brightness Start Highest point End
(mag) Time Altitude Azimuth Time Altitude Azimuth Time Altitude Azimuth
Cosmos 2082 Rocket 2.2 19:07:47 10° SSW 19:13:22 68° ESE 19:19:00 10° NNE
Cosmos 1842 Rocket 3.7 19:10:28 10° NNW 19:14:59 82° W 19:19:27 10° S
SPOT 5 4.4 19:12:41 10° ESE 19:15:41 19° ENE 19:18:44 10° NNE
Cosmos 2278 3.8 19:10:16 10° NNW 19:15:59 84° ENE 19:21:39 10° SSE
Resurs 1-3 4.0 19:14:23 10° S 19:18:45 69° WSW 19:23:09 10° NNW
Cosmos 2360 Rocket 3.8 19:18:14 10° N 19:22:41 23° NE 19:27:06 10° E
Cosmos 1633 2.5 19:20:10 10° S 19:23:44 66° E 19:27:21 10° NNE
ERS-1 Rocket 4.2 19:21:10 10° ESE 19:25:18 26° ENE 19:29:27 10° N
Cosmos 332 Rocket 4.2 19:20:31 10° NNW 19:25:19 52° ENE 19:30:06 10° SE
Cosmos 158 Rocket 4.5 19:22:36 10° S 19:27:23 40° ESE 19:32:18 10° NE
Cosmos 1606 3.0 19:26:40 10° NNW 19:30:26 67° W 19:34:11 10° S
Nadezhda 4 Rocket 4.0 19:26:14 10° S 19:32:22 72° E 19:38:36 10° NNE
Cosmos 2333 Rocket 4.3 19:28:57 10° N 19:32:34 17° NE 19:36:09 10° ENE
GP-B 4.1 19:31:01 10° NNE 19:34:58 31° E 19:38:47 11° SE
Landsat 7 3.9 19:33:19 10° SSE 19:38:05 85° WSW 19:42:52 10° NNW
Spot 2 Rocket 4.0 19:34:39 10° SE 19:39:31 47° ENE 19:44:24 10° N
SPOT 3 Rocket 3.6 19:34:32 10° SSE 19:39:46 88° ENE 19:45:02 10° NNW
ISS -3.4 19:36:53 10° WNW 19:40:12 53° SSW 19:42:58 14° SE
IGS 5A 3.8 19:37:12 10° S 19:41:19 67° WSW 19:45:28 10° NNW
Cosmos 1980 Rocket 2.9 19:39:05 10° NW 19:44:30 50° WSW 19:49:55 10° S
BREEZE-M DEB (TANK) 3.3 19:33:42 10° W 19:44:33 83° N 19:47:50 10° E
Cosmos 1812 4.4 19:42:45 10° NNE 19:45:37 20° ENE 19:48:00 12° ESE
USA 234 4.3 19:39:32 10° ENE 19:45:40 44° N 19:51:49 10° WNW
MetOp-B 4.2 19:40:50 10° SSE 19:46:12 87° ENE 19:51:36 10° NNW
CZ-2C R/B 3.9 19:42:13 10° NNE 19:46:39 49° E 19:50:57 10° S
Cosmos 2221 4.1 19:45:20 10° NNW 19:49:14 34° W 19:53:08 10° SSW
RESURS DK-1 3.2 19:47:41 10° SW 19:51:46 54° NW 19:55:52 10° NNE
USA 245 3.7 19:47:54 10° SSE 19:53:00 73° ENE 19:57:09 10° N
Meteor 2-15 4.5 19:48:03 10° N 19:54:09 87° W 20:00:12 10° S
Cosmos 2322 Rocket 2.6 19:49:54 10° NNW 19:55:25 52° NE 19:59:58 15° SE
BREEZE-M DEB (TANK) 3.6 19:51:47 10° SW 19:55:33 60° SE 20:08:55 10° ENE
Cosmos 304 Rocket 3.8 19:54:59 10° NNW 19:59:49 87° WSW 20:03:55 14° SSE
Cosmos 1933 3.3 19:56:50 10° N 20:00:55 89° ENE 20:04:32 13° S
BREEZE-M DEB (TANK) 4.0 19:57:55 10° W 20:01:16 54° SSW 20:09:24 14° SE
Cosmos 1538 Rocket 4.1 19:57:12 10° SSW 20:02:25 80° WNW 20:07:38 10° NNE
Resurs 01 Rocket 2.7 19:59:50 10° S 20:04:03 42° W 20:08:18 10° NNW
ERS-2 3.6 20:01:23 10° N 20:04:48 38° WNW 20:08:12 10° SW
Cosmos 1553 Rocket 4.4 20:00:38 10° N 20:06:28 46° ENE 20:10:57 17° SE
Cosmos 2151 3.1 20:02:17 10° SSW 20:06:32 80° W 20:10:50 10° N
Cosmos 2098 Rocket 3.8 20:04:56 10° SW 20:07:54 39° WNW 20:11:26 10° N
JB-3 4.3 20:05:25 10° NNE 20:09:34 74° E 20:13:38 10° S
Gbstr 26 Del rocket 2.7 20:06:37 10° WNW 20:10:20 67° SSW 20:12:56 20° SE
Meteor 2-3 Rocket 3.7 20:06:05 10° S 20:11:44 82° E 20:17:30 10° NNE
CARTOSAT-1 3.5 20:09:29 16° SSE 20:12:58 87° ENE 20:17:20 10° NNW
Cosmos 2084 4.4 20:12:29 20° SSE 20:14:01 25° ESE 20:17:25 10° ENE
Cosmos 2219 Rocket 3.8 20:12:11 10° N 20:16:42 24° NE 20:21:10 10° E
Cosmos 1624 Rocket 4.4 20:14:09 10° NNW 20:19:14 51° ENE 20:22:39 20° SE
Cosmos 1862 4.2 20:21:25 23° SE 20:23:01 31° E 20:26:34 10° NNE
SL-16 R/B 2.2 20:18:17 10° NNW 20:23:59 82° WSW 20:28:03 20° SSE
COSMOS 2455 4.3 20:26:05 17° ESE 20:27:01 17° ESE 20:30:45 10° ENE
Cosmos 1782 2.9 20:23:20 10° NNW 20:27:22 79° W 20:30:03 20° S
Cosmos 1515 Rocket 4.4 20:23:18 10° N 20:27:27 37° ENE 20:29:35 23° SE
Cosmos 2237 4.3 20:22:17 10° NNW 20:28:00 68° ENE 20:31:46 22° SE
ARIANE 5 R/B 2.7 20:26:51 19° S 20:30:05 77° WSW 20:34:34 10° NNW
COSMOS 2428 4.3 20:26:26 10° NNW 20:31:10 26° NE 20:35:35 11° E
Meteor 2-6 Rocket 4.2 20:27:59 10° N 20:33:22 62° ENE 20:36:39 24° SSE
Cosmos 1271 Rocket 3.6 20:30:04 10° NNW 20:33:55 48° W 20:36:55 16° SSW
Cosmos 1809 Rocket 4.4 20:30:11 14° S 20:35:28 70° E 20:41:35 10° NNE
S3M 4.4 20:30:31 10° N 20:36:47 53° ENE 20:40:44 23° SE
USA 276 2.8 20:35:00 10° W 20:37:58 38° SSW 20:38:32 34° S
BREEZE-M DEB (TANK) 3.6 20:35:49 10° W 20:39:08 39° SSW 20:43:14 22° SSE
Cosmos 1766 Rocket 3.5 20:37:42 18° S 20:40:55 85° ESE 20:45:20 10° N
Cosmos 1151 Rocket 3.1 20:36:37 10° NNW 20:40:58 74° W 20:43:40 23° S
ATLAS 5 CENTAUR R/B 3.7 20:38:45 10° NNW 20:43:18 30° NNE 20:48:34 10° E
Cosmos 1328 Rocket 3.5 20:40:45 10° N 20:45:13 87° W 20:47:39 27° S
Cosmos 1174 4.2 20:42:44 10° NNW 20:45:35 34° NE 20:46:29 27° E
ATLAS 2AS CENTAUR R/B 4.3 20:39:44 10° W 20:47:08 42° NNW 20:54:17 10° NE
Cosmos 923 Rocket 4.3 20:43:29 10° SSW 20:48:49 73° WNW 20:54:11 10° NNE
Terra 1.8 20:47:56 26° SSE 20:50:39 85° WSW 20:55:27 10° NNW
ATLAS 3B R/B 4.1 20:45:03 10° NW 20:51:04 30° WSW 20:56:42 12° SSW
USA 267 3.7 20:47:01 10° ENE 20:53:01 37° SE 20:58:59 10° SSW
SPOT 5 3.1 20:50:48 22° S 20:53:23 55° W 20:57:43 10° NNW
Cosmos 2082 Rocket 4.5 20:53:16 10° WSW 20:57:58 26° NW 21:02:44 10° NNE
Meteor 1-27 Rocket 4.2 20:53:35 10° N 20:59:03 50° ENE 21:01:49 28° SE
Cosmos 2056 Rocket 3.5 20:54:02 10° NNW 20:59:26 81° WSW 21:02:09 30° SSE
Meteor 2-21 Rocket 4.5 20:56:51 23° S 21:00:50 70° E 21:06:59 10° NNE
NOSS 2-1 (C) 2.7 21:00:51 51° S 21:01:21 59° SE 21:04:40 10° NE
BREEZE-M DEB (TANK) 2.5 21:01:46 10° W 21:03:13 42° WNW 21:03:13 42° WNW
ERS-1 Rocket 3.6 21:00:35 20° SSW 21:03:51 49° W 21:08:44 10° NNW
SL-27 R/B 2.4 21:06:23 49° S 21:07:12 69° ESE 21:10:48 10° NNE
Cosmos 2360 Rocket 2.2 21:01:42 10° NNW 21:07:22 82° WSW 21:10:08 32° SSE
Meteor 2-21 4.5 21:02:38 17° SSW 21:07:31 83° W 21:13:42 10° N
NOSS 2-1 (D) 2.6 21:08:18 49° SSW 21:09:02 73° SE 21:12:24 10° NE
ISS -1.1 21:15:35 10° WSW 21:15:56 10° SW 21:15:56 10° SW
Cosmos 1833 4.2 21:14:09 25° S 21:17:33 66° ESE 21:23:18 10° NNE
Cosmos 2333 Rocket 2.4 21:12:21 10° NNW 21:18:00 65° ENE 21:20:38 32° SE
Meteor 1-10 Rocket 4.2 21:14:34 10° NNW 21:20:08 75° W 21:22:51 31° S
Cosmos 1812 3.9 21:17:57 10° NNW 21:21:32 37° W 21:23:04 26° SW
Cosmos 1500 Rocket 3.5 21:22:35 45° SSE 21:23:48 67° E 21:28:12 10° NNE
Cosmos 1680 Rocket 4.3 21:18:55 10° SW 21:24:02 50° WNW 21:29:10 10° NNE
Cosmos 972 Rocket 4.4 21:23:45 37° SE 21:25:12 46° ESE 21:30:01 10° NNE
USA 234 3.5 21:22:43 15° ESE 21:28:11 70° NNE 21:34:43 10° NW
IRIDIUM 103 4.4 21:23:01 10° N 21:28:15 66° E 21:30:05 39° SSE
Cosmos 2322 3.8 21:22:35 10° NNW 21:28:20 73° ENE 21:30:49 35° SE
COBE Rocket 3.9 21:29:38 42° SE 21:31:02 63° ENE 21:35:41 10° N
Cosmos 292 Rocket 3.9 21:27:24 10° NNW 21:32:09 67° WSW 21:33:40 41° S
Cosmos 2297 Rocket 4.2 21:35:24 12° E 21:35:29 12° E 21:37:31 10° ENE
Cosmos 2237 Rocket 3.7 21:33:34 10° NNW 21:38:31 30° NE 21:42:14 15° E
Cosmos 2322 Rocket 3.5 21:34:24 10° NW 21:39:11 29° WSW 21:41:46 20° SW
Cosmos 1408 Rocket 4.4 21:40:12 24° SW 21:42:26 45° WNW 21:46:38 10° N
Cosmos 1743 Rocket 3.6 21:42:22 45° SSW 21:43:43 80° W 21:48:12 10° N
Cosmos 2285 Rocket 4.0 21:38:42 10° NNW 21:45:03 80° ENE 21:47:42 37° SSE
IRIDIUM 106 4.3 21:41:16 10° N 21:46:32 88° W 21:48:18 43° S
Cosmos 2227 Rocket 4.3 21:47:05 11° E 21:47:14 11° E 21:48:39 10° E
Meteor 1-25 Rocket 4.5 21:47:59 40° SE 21:49:32 52° E 21:54:56 10° NNE
Cosmos 2315 Rocket 4.0 21:43:12 10° N 21:49:33 86° W 21:52:17 37° S
Sich 1 3.1 21:51:50 54° SE 21:52:20 58° E 21:56:37 10° NNE
Cosmos 2084 4.2 21:49:17 10° WSW 21:53:15 49° NW 21:57:21 10° NE
Cosmos 494 Rocket 4.3 21:53:16 42° SE 21:53:57 44° ESE 21:58:48 10° NE
Okean 1 3.9 21:51:55 10° N 21:55:47 43° ENE 21:56:09 42° E
Cosmos 1633 Rocket 4.0 21:56:02 31° E 21:56:14 31° E 22:00:05 10° NNE
Cosmos 2266 Rocket 4.2 21:53:29 26° SSW 21:57:00 64° WNW 22:03:14 10° N
Cosmos 1666 Rocket 4.1 21:59:59 41° ESE 22:00:17 42° E 22:04:29 10° NNE
Cosmos 1048 Rocket 3.9 21:59:25 50° SSE 22:00:32 64° ESE 22:05:37 10° NNE
Cosmos 2219 Rocket 2.1 21:55:40 10° NNW 22:01:16 77° WSW 22:02:58 46° S
Cosmos 2228 Rocket 3.4 22:00:53 10° NNW 22:05:14 57° W 22:06:05 47° SW
SL-16 R/B 4.3 22:01:13 10° N 22:05:27 21° NE 22:09:38 10° E
Meteor 1-19 Rocket 4.3 21:59:50 10° N 22:05:29 65° ENE 22:07:11 43° SE
BREEZE-M DEB (TANK) 4.4 21:54:24 10° SW 22:06:57 47° SSE 22:11:12 10° E
SL-16 R/B 4.4 22:04:24 10° WNW 22:07:10 14° W 22:09:55 10° SW
NOSS 2-1 (E) 4.4 22:05:22 18° W 22:07:20 36° NW 22:10:41 10° NNE
USA 40 PKM 4.3 22:04:33 10° NW 22:08:10 80° NE 22:08:39 64° ESE
NOSS 3-1 (C) 4.2 22:03:26 10° NW 22:10:49 61° WSW 22:14:30 35° S
COSMOS 2455 2.7 22:09:10 32° SSW 22:12:06 87° SE 22:18:11 10° NE
Meteor 2-4 Rocket 4.4 22:08:18 10° N 22:14:02 47° ENE 22:16:13 33° ESE
COSMOS 2428 2.7 22:10:19 10° NNW 22:16:01 72° WSW 22:17:35 48° S
Cosmos 1602 3.6 22:17:48 85° E 22:17:48 85° E 22:21:40 10° N
CZ-4C R/B 4.4 22:13:06 10° NW 22:18:55 31° NNE 22:25:43 10° E
Cosmos 1515 3.7 22:17:06 10° NNW 22:20:49 71° W 22:20:49 71° W
Cosmos 1862 Rocket 3.7 22:18:09 10° N 22:22:28 57° ENE 22:22:56 53° ESE
Spot 4 4.2 22:21:45 46° SW 22:22:43 54° W 22:27:28 10° NNW
USA 229 DEB 3.9 22:17:47 10° NW 22:25:04 73° SW 22:28:16 38° SSE
USA 229 3.9 22:17:53 10° NW 22:25:10 73° SW 22:28:23 38° SSE
ATLAS 5 CENTAUR R/B 2.2 22:22:58 10° NW 22:28:29 84° SW 22:30:39 43° SSE
Terra 4.3 22:27:38 10° WSW 22:29:08 11° W 22:30:40 10° WNW
Cosmos 1452 Rocket 4.2 22:26:55 10° NW 22:31:48 39° WSW 22:32:49 36° SW
Cosmos 1707 Rocket 3.5 22:27:33 10° NNW 22:31:53 66° W 22:32:18 62° SW
COSMOS 2487 3.5 22:31:49 38° WNW 22:31:58 38° WNW 22:35:11 10° N
Thor Agena Rocket 4.3 22:28:53 10° NNE 22:33:31 35° E 22:34:07 34° ESE
ALOS 2 2.6 22:33:57 62° SW 22:34:22 67° WSW 22:38:46 10° NNW
USA 267 3.3 22:29:52 10° NE 22:36:26 82° NNW 22:42:59 10° WSW
Cosmos 2219 4.1 22:40:38 32° ESE 22:41:19 33° ESE 22:46:23 10° NE
Nadezhda 1 Rocket 4.1 22:35:46 10° N 22:42:12 73° E 22:44:26 43° SSE
Cosmos 1666 3.3 22:44:25 47° ENE 22:44:25 47° ENE 22:47:49 10° NNE
NOSS 3-1 (A) 4.2 22:38:07 10° NW 22:45:31 60° WSW 22:48:48 38° S
SL-08 ROCKET BODY 4.4 22:44:13 45° SSW 22:46:14 83° W 22:52:26 10° N
Cosmos 2360 Rocket 4.2 22:47:45 10° WNW 22:50:26 14° W 22:51:53 12° WSW
NOSS 2-2 (D) 4.4 22:51:51 10° NW 22:57:00 76° NE 23:00:43 28° SE
Cosmos 1980 3.6 22:54:13 10° NNW 22:59:55 81° WSW 23:01:19 53° SSE
Cosmos 2333 Rocket 3.6 22:57:27 10° NW 23:01:47 23° WSW 23:02:38 22° WSW
Cosmos 1331 Rocket 4.5 22:58:22 10° NW 23:03:20 44° WSW 23:03:58 42° SW
CZ-2D R/B 4.3 23:04:22 10° ENE 23:06:58 13° E 23:09:04 11° ESE
Meteor 2-17 Rocket 4.4 23:05:18 47° SSE 23:07:03 73° E 23:13:06 10° NNE
USA 234 3.5 23:10:02 43° S 23:11:24 48° SW 23:17:44 10° WNW
SL-16 R/B 4.3 23:06:58 10° ESE 23:11:53 26° ENE 23:16:51 10° N
Nimbus 7 Rocket 4.5 23:05:54 10° NNE 23:11:57 76° WNW 23:14:02 43° SW
Cosmos 1340 Rocket 2.9 23:13:35 65° ENE 23:13:35 65° ENE 23:17:19 10° NNE
NOSS 0 Rocket 4.3 23:08:46 10° NW 23:14:44 48° WSW 23:16:01 42° SW
EO 1 Del DPAF 4.4 23:13:37 10° NNE 23:16:42 32° E 23:16:42 32° E
Cosmos 2297 Rocket 2.1 23:17:11 53° S 23:18:30 73° ESE 23:24:10 10° NNE
Okean 1-7 2.9 23:14:20 10° N 23:18:36 75° E 23:18:54 71° ESE
Lacrosse 5 1.9 23:21:58 58° SSE 23:22:14 59° SE 23:27:14 10° ENE
Cosmos 2237 Rocket 2.3 23:17:22 10° NW 23:22:58 59° WSW 23:24:02 50° SSW
Cosmos 1869 Rocket 4.2 23:23:27 41° ESE 23:23:58 43° E 23:28:13 10° NNE
Cosmos 2242 Rocket 3.4 23:20:17 10° N 23:24:44 87° E 23:25:08 73° SSE
Cosmos 2084 Rocket 3.9 23:20:41 10° NW 23:24:07 47° W 23:24:07 47° W
NOSS 2-2 (E) 4.5 23:20:44 10° NW 23:26:08 66° SW 23:28:32 41° SSE
Cosmos 2181 Rocket 4.3 23:21:51 10° N 23:28:09 62° ENE 23:30:51 34° SE
Cosmos 1470 Rocket 3.9 23:29:03 48° W 23:29:30 50° WNW 23:33:44 10° N
Cosmos 2227 Rocket 2.2 23:28:53 51° S 23:30:11 69° ESE 23:35:50 10° NNE
Cosmos 909 Rocket 4.3 23:31:45 43° S 23:33:58 65° ESE 23:41:36 10° NE
Cosmos 1633 Rocket 4.4 23:33:06 26° W 23:34:00 28° WNW 23:37:49 10° N
Cosmos 1933 Rocket 3.6 23:35:34 61° WSW 23:36:05 67° W 23:40:33 10° N
Timation 1 Rocket 4.4 23:41:04 47° S 23:42:44 68° ESE 23:48:42 10° NE
Meteor 1-11 Rocket 3.6 23:41:19 50° S 23:42:49 79° E 23:48:21 10° NNE
Cosmos 2219 Rocket 4.2 23:42:01 10° WNW 23:44:14 12° W 23:44:40 12° W
Cosmos 2263 Rocket 3.9 23:46:36 17° SE 23:48:30 20° E 23:52:31 10° NE
SL-16 R/B 2.1 23:44:42 10° NNW 23:50:25 87° ENE 23:52:42 38° SSE
Cosmos 1992 Rocket 3.9 23:45:38 10° NNW 23:50:52 76° WSW 23:52:05 53° S
PSLV R/B 4.2 23:46:27 10° N 23:51:06 55° WNW 23:52:12 44° WSW
ADEOS Rocket 4.2 23:47:08 11° ESE 23:51:45 33° ENE 23:56:37 10° N
Cosmos 1269 Rocket 4.4 23:50:05 38° WSW 23:51:49 55° WNW 23:57:02 10° NNE
Resurs 1-4 Rocket 3.3 23:48:33 10° NNE 23:53:16 31° E 23:55:13 24° SE
